RXA560 YBCG-YCFS

Flight info

Callsign RXA560
Flight time 0h 35m
Altitude 17000
Route HASS DCT ELDUX DCT RER
Aircraft SF34/M-SDFGR/S

Departure

Time 2026-05-06 13:20
Airport Gold Coast Airport (YBCG)

Arrival

Time 2026-05-06 13:56
Airport Coffs Harbour Airport (YCFS)
Time Latitude Longitude Altitude Speed Heading
2026-05-06 12:47 -28.16423 153.51180 21 ft 0 kts 150°
2026-05-06 13:06 -28.16408 153.51170 21 ft 3 kts 150°
2026-05-06 13:06 -28.16388 153.51158 21 ft 3 kts 151°
2026-05-06 13:06 -28.16368 153.51145 21 ft 3 kts 151°
2026-05-06 13:06 -28.16376 153.51145 21 ft 3 kts 179°
2026-05-06 13:07 -28.16385 153.51138 21 ft 3 kts 221°
2026-05-06 13:07 -28.16394 153.51117 21 ft 2 kts 246°
2026-05-06 13:07 -28.16390 153.51096 21 ft 3 kts 290°
2026-05-06 13:07 -28.16392 153.51074 21 ft 3 kts 250°
2026-05-06 13:08 -28.16401 153.51056 21 ft 3 kts 240°
2026-05-06 13:08 -28.16413 153.51032 21 ft 0 kts 240°
2026-05-06 13:15 -28.16418 153.51023 21 ft 6 kts 240°
2026-05-06 13:15 -28.16452 153.50955 21 ft 8 kts 240°
2026-05-06 13:16 -28.16483 153.50893 21 ft 11 kts 239°
2026-05-06 13:16 -28.16472 153.50809 21 ft 12 kts 322°
2026-05-06 13:16 -28.16374 153.50745 21 ft 19 kts 330°
2026-05-06 13:16 -28.16236 153.50657 21 ft 28 kts 331°
2026-05-06 13:17 -28.16047 153.50537 21 ft 29 kts 331°
2026-05-06 13:17 -28.15878 153.50431 21 ft 30 kts 330°
2026-05-06 13:17 -28.15695 153.50315 21 ft 28 kts 332°
2026-05-06 13:17 -28.15607 153.50227 21 ft 16 kts 283°
2026-05-06 13:18 -28.15610 153.50189 21 ft 0 kts 251°
2026-05-06 13:18 -28.15647 153.50111 22 ft 19 kts 238°
2026-05-06 13:18 -28.15735 153.50126 22 ft 11 kts 149°
2026-05-06 13:19 -28.15780 153.50155 22 ft 0 kts 150°
2026-05-06 13:19 -28.15801 153.50169 23 ft 17 kts 151°
2026-05-06 13:19 -28.16085 153.50348 22 ft 78 kts 150°
2026-05-06 13:19 -28.16730 153.50757 25 ft 132 kts 150°
2026-05-06 13:20 -28.17617 153.51315 311 ft 156 kts 150°
2026-05-06 13:20 -28.18697 153.51716 774 ft 169 kts 174°
2026-05-06 13:20 -28.19908 153.51862 1299 ft 183 kts 173°
2026-05-06 13:20 -28.21171 153.52116 1977 ft 182 kts 165°
2026-05-06 13:21 -28.22418 153.52331 2641 ft 188 kts 178°
2026-05-06 13:21 -28.23780 153.52371 2918 ft 210 kts 175°
2026-05-06 13:21 -28.25312 153.52631 2873 ft 233 kts 171°
2026-05-06 13:21 -28.26934 153.52954 2974 ft 237 kts 170°
2026-05-06 13:22 -28.28554 153.53279 3159 ft 236 kts 170°
2026-05-06 13:22 -28.30168 153.53605 3406 ft 235 kts 170°
2026-05-06 13:22 -28.31774 153.53930 3690 ft 233 kts 170°
2026-05-06 13:22 -28.33362 153.54252 4024 ft 231 kts 170°
2026-05-06 13:23 -28.34919 153.54568 4367 ft 230 kts 170°
2026-05-06 13:23 -28.36497 153.54887 4714 ft 230 kts 170°
2026-05-06 13:23 -28.38074 153.55206 5059 ft 230 kts 170°
2026-05-06 13:23 -28.39657 153.55525 5405 ft 231 kts 170°
2026-05-06 13:24 -28.41237 153.55843 5753 ft 232 kts 170°
2026-05-06 13:24 -28.42828 153.56164 6101 ft 232 kts 171°
2026-05-06 13:24 -28.44418 153.56106 6445 ft 230 kts 192°
2026-05-06 13:24 -28.45996 153.55761 6794 ft 231 kts 188°
2026-05-06 13:25 -28.47599 153.55612 7142 ft 232 kts 182°
2026-05-06 13:25 -28.49211 153.55528 7490 ft 233 kts 184°
2026-05-06 13:25 -28.50828 153.55369 7780 ft 236 kts 185°
2026-05-06 13:25 -28.52476 153.55237 8032 ft 239 kts 184°
2026-05-06 13:26 -28.54136 153.55105 8284 ft 240 kts 185°
2026-05-06 13:26 -28.55785 153.54963 8531 ft 241 kts 184°
2026-05-06 13:26 -28.57466 153.54829 8778 ft 242 kts 184°
2026-05-06 13:26 -28.59145 153.54689 9030 ft 243 kts 185°
2026-05-06 13:27 -28.60840 153.54547 9282 ft 244 kts 184°
2026-05-06 13:27 -28.62537 153.54409 9531 ft 245 kts 184°
2026-05-06 13:27 -28.64235 153.54269 9781 ft 246 kts 185°
2026-05-06 13:27 -28.65943 153.54127 10031 ft 246 kts 184°
2026-05-06 13:28 -28.67653 153.53986 10282 ft 247 kts 185°
2026-05-06 13:28 -28.68791 153.53892 10448 ft 248 kts 185°
2026-05-06 13:28 -28.69196 153.53858 10501 ft 248 kts 185°
2026-05-06 13:29 -28.70943 153.53713 10780 ft 248 kts 185°
2026-05-06 13:29 -28.72635 153.53574 11098 ft 247 kts 184°
2026-05-06 13:29 -28.74344 153.53433 11423 ft 247 kts 184°
2026-05-06 13:29 -28.76063 153.53290 11747 ft 248 kts 184°
2026-05-06 13:30 -28.77785 153.53148 12070 ft 249 kts 184°
2026-05-06 13:30 -28.79516 153.53005 12395 ft 250 kts 184°
2026-05-06 13:30 -28.81256 153.52859 12720 ft 251 kts 184°
2026-05-06 13:30 -28.83005 153.52715 13044 ft 253 kts 184°
2026-05-06 13:31 -28.84760 153.52570 13369 ft 254 kts 184°
2026-05-06 13:31 -28.86527 153.52424 13694 ft 255 kts 185°
2026-05-06 13:31 -28.88280 153.52277 14013 ft 256 kts 185°
2026-05-06 13:31 -28.90068 153.52129 14339 ft 258 kts 184°
2026-05-06 13:32 -28.91860 153.51981 14664 ft 259 kts 184°
2026-05-06 13:32 -28.93661 153.51831 14989 ft 260 kts 184°
2026-05-06 13:32 -28.95469 153.51681 15314 ft 261 kts 185°
2026-05-06 13:32 -28.97284 153.51529 15638 ft 262 kts 184°
2026-05-06 13:33 -28.99106 153.51378 15963 ft 264 kts 185°
2026-05-06 13:33 -29.00943 153.51225 16289 ft 265 kts 184°
2026-05-06 13:33 -29.02759 153.51074 16609 ft 266 kts 185°
2026-05-06 13:33 -29.04605 153.50830 16821 ft 271 kts 193°
2026-05-06 13:34 -29.06426 153.50181 16879 ft 278 kts 199°
2026-05-06 13:34 -29.08293 153.49499 16895 ft 283 kts 195°
2026-05-06 13:34 -29.10217 153.48968 16901 ft 287 kts 193°
2026-05-06 13:34 -29.12160 153.48430 16906 ft 288 kts 195°
2026-05-06 13:35 -29.14095 153.47814 16907 ft 289 kts 195°
2026-05-06 13:35 -29.16046 153.47250 16908 ft 289 kts 194°
2026-05-06 13:35 -29.17970 153.46687 16908 ft 290 kts 195°
2026-05-06 13:35 -29.19919 153.46092 16908 ft 290 kts 195°
2026-05-06 13:36 -29.21875 153.45520 16908 ft 290 kts 194°
2026-05-06 13:36 -29.23828 153.44938 16907 ft 290 kts 195°
2026-05-06 13:36 -29.25783 153.44353 16906 ft 290 kts 195°
2026-05-06 13:36 -29.27742 153.43773 16908 ft 290 kts 195°
2026-05-06 13:37 -29.29697 153.43189 16907 ft 290 kts 195°
2026-05-06 13:37 -29.31648 153.42609 16908 ft 290 kts 195°
2026-05-06 13:37 -29.33598 153.42027 16907 ft 290 kts 195°
2026-05-06 13:37 -29.35529 153.41452 16907 ft 290 kts 195°
2026-05-06 13:38 -29.37484 153.40868 16908 ft 290 kts 195°
2026-05-06 13:38 -29.39441 153.40285 16906 ft 290 kts 195°
2026-05-06 13:38 -29.41390 153.39702 16907 ft 290 kts 195°
2026-05-06 13:38 -29.43346 153.39119 16907 ft 290 kts 195°
2026-05-06 13:39 -29.45301 153.38534 16907 ft 290 kts 195°
2026-05-06 13:39 -29.47256 153.37950 16907 ft 290 kts 195°
2026-05-06 13:39 -29.49222 153.37362 16719 ft 295 kts 195°
2026-05-06 13:39 -29.51222 153.36764 16471 ft 298 kts 195°
2026-05-06 13:40 -29.53235 153.36162 16224 ft 299 kts 195°
2026-05-06 13:40 -29.55220 153.35567 15979 ft 298 kts 195°
2026-05-06 13:40 -29.57221 153.34969 15732 ft 297 kts 195°
2026-05-06 13:40 -29.59219 153.34369 15484 ft 296 kts 195°
2026-05-06 13:41 -29.61208 153.33774 15237 ft 295 kts 195°
2026-05-06 13:41 -29.63191 153.33178 14986 ft 294 kts 195°
2026-05-06 13:41 -29.65168 153.32587 14737 ft 293 kts 195°
2026-05-06 13:41 -29.67136 153.31995 14488 ft 292 kts 195°
2026-05-06 13:42 -29.69098 153.31406 14237 ft 290 kts 195°
2026-05-06 13:42 -29.71023 153.30828 13993 ft 289 kts 195°
2026-05-06 13:42 -29.72966 153.30245 13741 ft 288 kts 195°
2026-05-06 13:42 -29.74900 153.29663 13492 ft 287 kts 195°
2026-05-06 13:43 -29.76825 153.29084 13242 ft 286 kts 195°
2026-05-06 13:43 -29.78745 153.28507 12991 ft 284 kts 195°
2026-05-06 13:43 -29.80649 153.27934 12742 ft 283 kts 195°
2026-05-06 13:43 -29.82553 153.27361 12544 ft 280 kts 195°
2026-05-06 13:44 -29.84427 153.26797 12441 ft 277 kts 195°
2026-05-06 13:44 -29.86284 153.26237 12340 ft 276 kts 195°
2026-05-06 13:44 -29.88131 153.25681 12239 ft 274 kts 195°
2026-05-06 13:44 -29.89951 153.25131 12140 ft 274 kts 195°
2026-05-06 13:45 -29.91797 153.24575 11998 ft 274 kts 195°
2026-05-06 13:45 -29.95492 153.23460 11648 ft 275 kts 195°
2026-05-06 13:45 -29.97340 153.22902 11472 ft 274 kts 195°
2026-05-06 13:46 -29.99176 153.22343 11298 ft 272 kts 197°
2026-05-06 13:46 -30.00813 153.21285 11121 ft 272 kts 224°
2026-05-06 13:46 -30.01816 153.19469 10947 ft 271 kts 251°
2026-05-06 13:46 -30.02115 153.17331 10772 ft 269 kts 258°
2026-05-06 13:47 -30.02899 153.15433 10598 ft 269 kts 230°
2026-05-06 13:47 -30.04405 153.14188 10426 ft 269 kts 201°
2026-05-06 13:47 -30.06238 153.13919 10254 ft 268 kts 174°
2026-05-06 13:47 -30.08085 153.13972 10082 ft 266 kts 186°
2026-05-06 13:48 -30.09918 153.13680 9908 ft 266 kts 189°
2026-05-06 13:48 -30.11744 153.13331 9698 ft 266 kts 190°
2026-05-06 13:48 -30.13572 153.12974 9452 ft 266 kts 190°
2026-05-06 13:48 -30.15398 153.12616 9203 ft 266 kts 190°
2026-05-06 13:49 -30.17195 153.12264 8958 ft 265 kts 190°
2026-05-06 13:49 -30.18993 153.11911 8707 ft 251 kts 190°
2026-05-06 13:49 -30.20666 153.11585 8453 ft 240 kts 190°
2026-05-06 13:49 -30.22305 153.11266 8194 ft 237 kts 190°
2026-05-06 13:50 -30.23924 153.10949 7938 ft 236 kts 190°
2026-05-06 13:50 -30.25539 153.10632 7671 ft 235 kts 190°
2026-05-06 13:50 -30.27173 153.10425 7290 ft 237 kts 176°
2026-05-06 13:50 -30.28784 153.10805 6918 ft 238 kts 165°
2026-05-06 13:51 -30.30377 153.11332 6543 ft 238 kts 164°
2026-05-06 13:51 -30.31967 153.11872 6169 ft 238 kts 164°
2026-05-06 13:51 -30.33533 153.12410 5798 ft 237 kts 164°
2026-05-06 13:51 -30.35146 153.12624 5421 ft 235 kts 189°
2026-05-06 13:52 -30.36632 153.11889 5050 ft 233 kts 213°
2026-05-06 13:52 -30.37958 153.10805 4677 ft 234 kts 216°
2026-05-06 13:52 -30.39258 153.09687 4304 ft 227 kts 217°
2026-05-06 13:52 -30.40461 153.08585 3859 ft 216 kts 224°
2026-05-06 13:53 -30.41244 153.07129 3221 ft 216 kts 257°
2026-05-06 13:53 -30.41061 153.05434 2579 ft 217 kts 300°
2026-05-06 13:53 -30.39911 153.04440 1995 ft 206 kts 348°
2026-05-06 13:53 -30.38614 153.04828 1593 ft 199 kts 41°
2026-05-06 13:54 -30.37853 153.06003 1301 ft 177 kts 58°
2026-05-06 13:54 -30.37241 153.07158 1209 ft 156 kts 56°
2026-05-06 13:54 -30.36552 153.07981 864 ft 139 kts 39°
2026-05-06 13:54 -30.35807 153.08716 643 ft 137 kts 42°
2026-05-06 13:55 -30.35077 153.09425 395 ft 136 kts 39°
2026-05-06 13:55 -30.34364 153.10134 193 ft 135 kts 41°
2026-05-06 13:55 -30.33655 153.10833 30 ft 132 kts 40°
2026-05-06 13:55 -30.33039 153.11447 20 ft 102 kts 41°
2026-05-06 13:56 -30.32749 153.11732 21 ft 26 kts 39°
2026-05-06 13:56 -30.32600 153.11882 23 ft 25 kts 39°
2026-05-06 13:56 -30.32508 153.11881 23 ft 15 kts 307°
2026-05-06 13:56 -30.32447 153.11797 22 ft 15 kts 309°
2026-05-06 13:57 -30.32384 153.11714 22 ft 11 kts 310°
2026-05-06 13:57 -30.32351 153.11654 22 ft 2 kts 306°
2026-05-06 13:57 -30.32325 153.11640 22 ft 4 kts 345°
2026-05-06 13:57 -30.32310 153.11633 22 ft 0 kts 339°
2026-05-06 13:58 -30.32309 153.11633 22 ft 0 kts 340°